Volver al catálogo

COSMOS 1842

ActivoMilitarPO
NORAD 17911·PAYLOAD·🇷🇺 Russia

Lanzado Apr 27, 1987 desde Plesetsk Cosmodrome

Loading…

Próximos Pases (próximas 24 horas)

TLE

ActualizadoSource: Space-Track

Época: Sep 14, 2026, 11:20 UTC

1 17911U 87038A   26257.47286954  .00026282  00000-0  29772-3 0  9992
2 17911  82.4996  80.6542 0003341 339.2894  20.8228 15.62242053154690

Sigue COSMOS 1842 en tiempo real con AllMySat

Download on the App Store